Date,TemperatureHighF,TemperatureAvgF,TemperatureLowF,DewpointHighF,DewpointAvgF,DewpointLowF,HumidityHigh,HumidityAvg,HumidityLow,PressureMaxIn,PressureMinIn,WindSpeedMaxMPH,WindSpeedAvgMPH,GustSpeedMaxMPH,PrecipitationSumIn
2013-8-31,88.0,82.8,75.9,74.8,73.3,70.7,84,73,64,29.86,29.77,5,1,10,0.00
2013-9-1,85.6,79.1,75.5,74.9,72.9,71.2,92,82,67,29.85,29.79,5,1,14,0.00
2013-9-2,81.8,77.4,72.5,75.6,73.4,68.6,92,88,76,29.80,29.70,3,0,9,0.21
2013-9-3,82.9,76.0,70.6,72.2,66.3,57.8,95,74,48,29.88,29.70,3,0,10,0.03
2013-9-4,82.9,77.3,68.0,60.8,59.1,54.0,73,54,43,29.97,29.87,12,2,12,0.00
2013-9-5,79.1,73.4,65.9,61.7,53.2,42.9,68,51,32,30.14,29.91,9,3,10,0.00
2013-9-6,72.7,65.0,57.1,50.7,45.6,41.0,63,50,33,30.25,30.12,8,2,8,0.00
2013-9-7,80.9,70.4,60.0,59.0,51.7,46.9,71,53,34,30.12,29.89,9,2,12,0.00
2013-9-8,82.7,74.9,65.1,65.5,56.0,46.1,67,53,33,30.07,29.81,12,3,13,0.00
2013-9-9,72.5,66.2,58.4,60.6,51.2,44.8,75,59,39,30.24,30.07,10,3,12,0.00
2013-9-10,87.6,77.6,68.9,74.0,68.9,61.0,85,75,63,30.15,30.03,14,4,14,0.00
2013-9-11,96.0,85.7,77.3,78.0,74.5,72.6,86,70,55,30.10,29.96,12,3,12,0.00
2013-9-12,88.3,79.1,70.7,74.9,71.8,68.1,93,79,61,29.97,29.67,13,3,13,1.04
2013-9-13,76.9,69.7,60.0,68.0,60.6,49.8,92,74,56,29.84,29.62,12,2,12,0.04
2013-9-14,68.2,60.5,54.7,50.8,48.4,45.9,74,65,52,30.12,29.84,10,3,10,0.00
2013-9-15,73.7,62.9,52.4,57.2,48.3,43.0,78,61,36,30.21,30.08,12,2,12,0.00
2013-9-16,73.4,66.0,58.7,58.3,54.8,47.8,86,68,51,30.23,30.04,14,3,14,0.02
2013-9-17,65.3,59.4,49.6,47.7,41.8,37.1,68,53,42,30.43,30.24,14,4,14,0.00
2013-9-18,73.3,62.1,53.1,53.2,47.0,42.4,75,59,36,30.35,30.18,9,2,9,0.00
2013-9-19,78.7,66.0,56.2,57.6,51.7,47.3,76,62,36,30.19,30.06,12,2,12,0.00
2013-9-20,79.9,68.6,59.4,60.3,57.9,54.2,86,70,48,30.08,29.99,10,2,12,0.00
2013-9-21,77.0,68.9,61.1,68.2,63.5,57.6,93,83,68,30.01,29.66,20,6,20,0.15
2013-9-22,69.9,64.0,55.8,68.0,53.3,43.4,94,70,48,29.91,29.64,13,3,13,0.56
2013-9-23,66.3,58.2,51.5,47.7,44.1,41.1,73,60,45,30.04,29.91,13,2,13,0.00
2013-9-24,74.0,60.5,48.6,48.1,44.8,41.6,78,58,35,30.05,29.86,9,2,9,0.00
2013-9-25,73.2,63.9,54.9,54.4,47.6,43.3,75,56,39,29.95,29.86,5,1,5,0.00
2013-9-26,70.0,63.1,58.7,57.7,55.6,52.8,86,77,60,30.09,29.93,13,2,13,0.00
2013-9-27,67.4,63.5,58.7,55.8,53.9,51.9,85,71,61,30.26,30.09,8,2,11,0.00
2013-9-28,73.5,66.6,59.2,55.5,53.5,51.3,78,64,48,30.32,30.23,12,2,12,0.00
2013-9-29,71.8,64.1,58.5,59.7,55.4,50.8,90,74,49,30.23,30.08,10,2,10,0.00
2013-9-30,74.3,64.7,57.3,56.9,54.6,51.3,91,71,47,30.08,29.96,6,1,7,0.00
2013-10-1,81.8,69.7,59.0,61.5,56.8,53.1,83,65,44,30.00,29.88,6,1,6,0.00
2013-10-2,84.7,73.8,63.6,64.3,60.7,55.7,80,65,49,30.00,29.89,10,1,10,0.00
2013-10-3,79.3,71.7,63.8,61.6,58.0,52.1,83,63,42,30.11,30.00,9,1,9,0.00
2013-10-4,88.1,74.5,66.8,70.0,64.0,57.4,90,71,49,30.06,29.95,12,2,12,0.03
2013-10-5,75.4,68.2,64.5,65.7,63.4,61.5,90,85,71,30.09,30.01,8,2,8,0.00
2013-10-6,69.5,67.0,65.2,67.1,65.0,63.2,96,93,91,30.09,30.03,7,2,9,0.01
2013-10-7,76.6,68.9,61.4,70.3,65.0,50.3,94,88,67,30.03,29.76,18,6,18,0.33
2013-10-8,67.3,61.2,55.2,50.3,46.2,43.0,74,59,43,30.32,29.98,12,2,12,0.00
2013-10-9,62.4,59.8,55.9,51.1,48.9,42.8,78,67,54,30.39,30.29,15,6,15,0.00
2013-10-10,64.1,58.9,54.3,57.2,52.4,47.9,85,79,74,30.28,30.07,16,5,16,0.00
2013-10-11,67.4,63.9,60.5,60.6,57.8,51.1,89,81,59,30.09,30.01,16,6,16,0.01
2013-10-12,72.2,64.9,60.1,57.4,50.3,40.9,79,60,33,30.28,30.07,23,6,23,0.00
2013-10-13,64.4,59.7,56.5,55.0,52.0,49.1,83,76,66,30.39,30.27,16,6,16,0.00
2013-10-14,65.7,58.3,52.6,52.4,49.9,46.6,83,74,54,30.37,30.24,8,2,8,0.00
2013-10-15,57.0,56.3,55.8,51.6,51.4,51.1,85,84,82,30.26,30.23,1,0,1,0.00
2013-10-16,65.4,62.9,60.1,61.6,58.7,55.2,93,86,74,30.06,29.87,1,0,7,0.00
2013-10-17,73.8,65.5,57.6,63.3,58.4,46.6,93,78,58,29.89,29.67,3,1,16,0.01
2013-10-18,69.0,64.1,58.2,48.1,45.8,43.8,59,52,43,29.98,29.84,8,2,12,0.01
2013-10-19,64.1,59.6,53.1,55.9,48.5,42.6,87,67,50,29.98,29.73,12,2,12,0.00
2013-10-20,63.4,57.6,50.7,55.8,41.9,35.9,87,58,38,30.05,29.74,14,2,14,0.00
2013-10-21,68.1,59.4,51.0,48.1,41.5,36.9,70,53,34,30.15,29.99,10,3,12,0.00
2013-10-22,68.0,59.6,52.8,51.3,47.7,39.4,80,65,51,29.99,29.74,13,3,13,0.00
2013-10-23,54.8,50.9,46.6,43.2,38.5,35.2,75,63,49,29.81,29.61,10,2,10,0.00
2013-10-24,55.4,47.8,42.2,37.8,32.9,27.3,76,58,38,30.01,29.75,16,4,16,0.00
2013-10-25,53.9,48.6,41.4,35.6,32.6,29.1,73,54,41,30.23,30.01,12,3,14,0.00
2013-10-26,56.7,50.2,43.1,36.1,33.2,30.2,68,53,38,30.22,29.90,14,4,14,0.00
2013-10-27,59.0,52.7,48.2,35.9,34.0,32.5,58,49,39,30.12,29.86,15,4,15,0.00
2013-10-28,62.1,55.4,46.7,38.4,35.5,32.9,61,48,37,30.32,30.12,13,2,13,0.00
2013-10-29,55.9,50.3,44.6,38.8,34.5,31.1,67,55,44,30.43,30.32,9,2,9,0.00
2013-10-30,59.8,54.4,48.2,52.4,44.8,34.4,80,70,57,30.36,30.18,7,1,10,0.00
2013-10-31,65.0,60.4,52.6,59.9,56.0,47.8,92,85,78,30.23,29.81,12,2,12,0.06
2013-11-1,69.8,65.9,61.8,63.5,59.2,54.6,93,79,61,29.81,29.55,16,5,16,0.13
2013-11-2,68.5,60.1,55.0,58.7,48.4,40.9,90,67,42,29.78,29.61,8,1,9,0.01
2013-11-3,55.7,45.7,38.2,42.2,31.5,19.3,63,57,46,30.46,29.77,12,2,12,0.01
2013-11-4,45.7,40.2,34.3,25.9,20.3,16.9,56,45,34,30.66,30.46,13,4,13,0.00
2013-11-5,54.7,48.8,42.0,43.6,37.4,25.3,75,65,51,30.66,30.47,9,2,9,0.00
2013-11-6,60.6,56.4,49.4,53.8,47.9,42.7,90,74,58,30.50,30.07,12,4,12,0.00
2013-11-7,63.5,53.8,44.1,58.6,47.4,33.4,90,79,60,30.07,29.76,10,2,12,0.12
2013-11-8,49.9,44.9,40.6,34.8,30.3,25.8,73,57,42,30.22,29.93,15,3,15,0.00
2013-11-9,50.7,45.1,38.7,37.1,29.8,26.0,69,56,40,30.30,30.00,10,3,12,0.00
2013-11-10,60.8,50.7,45.4,40.7,35.3,31.1,70,56,38,30.05,29.80,18,6,18,0.00
2013-11-11,52.8,48.8,43.3,34.8,30.9,26.9,56,50,44,30.21,29.96,14,4,14,0.00
2013-11-12,51.9,39.1,31.6,36.6,25.7,17.7,85,59,48,30.29,29.93,13,4,13,0.04
2013-11-13,39.1,35.4,28.8,22.3,17.5,12.7,63,48,35,30.38,30.28,12,3,12,0.00
2013-11-14,52.6,43.8,34.3,24.3,20.4,16.6,61,41,25,30.28,30.15,16,5,16,0.00
2013-11-15,57.0,51.4,44.1,37.0,30.2,24.1,56,45,32,30.25,30.15,7,2,7,0.00
2013-11-16,59.8,52.2,46.7,48.2,42.4,29.4,92,71,44,30.32,30.22,9,2,9,0.05
2013-11-17,59.5,54.5,49.4,58.4,52.7,46.6,97,94,89,30.27,29.79,6,2,6,0.02
2013-11-18,65.0,59.6,50.8,59.7,42.8,27.5,98,58,32,29.80,29.59,17,5,17,0.21
2013-11-19,50.7,44.0,36.6,32.2,27.2,23.4,61,51,47,30.34,29.78,18,5,18,0.00
2013-11-20,43.7,37.6,32.9,24.4,20.5,16.1,66,51,34,30.61,30.34,14,2,14,0.00
2013-11-21,51.2,44.2,35.0,43.8,32.9,21.9,77,65,56,30.62,30.39,9,2,9,0.00
2013-11-22,56.8,53.7,51.0,50.6,47.7,41.9,91,80,71,30.39,29.89,12,3,12,0.07
2013-11-23,54.2,42.0,31.0,49.1,25.8,13.5,84,54,37,30.03,29.89,18,4,18,0.00
2013-11-24,30.9,26.3,23.2,14.9,8.0,1.7,56,46,30,30.38,30.00,20,6,20,0.00
2013-11-25,36.2,29.7,23.2,17.7,13.5,9.2,62,51,42,30.49,30.33,14,3,14,0.00
2013-11-26,45.7,37.9,34.4,44.0,26.8,17.7,95,66,47,30.34,29.79,12,2,12,0.49
2013-11-27,60.4,47.6,35.2,59.5,44.4,24.1,97,89,64,29.79,29.33,22,6,22,1.62
2013-11-28,35.1,32.5,30.5,24.1,16.1,11.2,64,51,39,30.48,29.74,18,4,18,0.00
2013-11-29,39.0,33.8,29.9,22.1,19.1,15.3,62,55,48,30.74,30.47,8,2,8,0.00
2013-11-30,37.9,32.3,25.4,30.4,20.4,13.0,74,62,44,30.77,30.38,7,2,7,0.00
2013-12-1,48.2,43.1,36.7,35.9,33.2,29.6,84,69,54,30.38,30.01,4,0,4,0.00
2013-12-2,47.4,43.3,40.7,40.7,37.2,31.8,92,79,63,30.01,29.89,7,1,7,0.00
2013-12-3,41.6,41.0,40.4,38.9,37.8,37.3,92,88,86,29.90,29.89,2,0,2,0.00
2013-12-5,58.2,56.3,54.4,55.5,54.2,53.1,96,93,90,30.00,29.93,12,2,12,0.02
2013-12-6,56.3,47.5,36.8,55.7,45.5,34.1,98,93,86,30.16,29.87,13,3,13,0.59
2013-12-7,40.8,37.1,32.1,34.5,28.0,18.3,91,71,51,30.52,30.09,12,2,12,0.11
2013-12-8,32.9,31.0,28.9,29.7,21.3,16.5,91,68,54,30.60,30.39,9,2,9,0.00
2013-12-9,32.5,32.1,31.4,30.6,30.1,29.3,93,92,91,30.39,30.31,9,4,9,0.00
2013-12-10,37.0,33.4,29.9,32.3,28.4,17.7,93,82,60,30.32,29.87,16,3,16,0.15
2013-12-11,33.7,30.4,26.8,20.4,17.3,15.2,64,58,49,30.33,30.13,15,6,15,0.02
2013-12-12,29.1,25.5,22.9,18.5,10.3,6.1,69,52,43,30.37,30.17,13,4,16,0.00
2013-12-13,34.9,30.0,23.9,19.2,13.7,6.1,55,50,45,30.34,30.14,20,4,20,0.00
2013-12-14,33.5,27.9,23.0,32.1,22.0,18.1,100,80,53,30.42,29.80,14,5,14,0.00
2013-12-15,39.3,35.1,30.2,35.9,30.5,22.4,97,84,63,29.85,29.50,17,4,17,1.34
2013-12-16,33.4,28.7,25.2,24.1,15.4,10.8,70,57,48,30.24,29.83,16,3,16,0.00
2013-12-17,31.1,26.7,24.0,28.8,20.8,11.7,92,79,52,30.24,29.94,7,2,7,0.00
2013-12-18,24.8,24.1,23.8,21.1,20.6,20.2,87,86,86,29.95,29.92,6,2,6,0.00
2013-12-19,44.5,43.0,40.5,33.5,30.7,27.6,73,62,55,30.12,30.02,6,1,11,0.04
2013-12-20,52.4,47.9,40.3,46.9,36.0,31.6,82,64,53,30.10,29.97,12,2,12,0.00
2013-12-21,61.7,55.5,51.5,54.8,49.5,47.1,88,80,69,30.00,29.90,13,3,13,0.00
2013-12-22,69.4,62.0,54.1,63.4,57.1,50.1,94,84,73,29.96,29.82,12,4,12,0.01
2013-12-23,62.7,55.5,41.8,58.7,52.4,33.8,96,89,73,30.16,29.88,14,2,14,0.48
2013-12-24,41.8,35.9,26.9,33.8,24.4,10.4,81,63,50,30.35,30.09,14,3,14,0.00
2013-12-25,30.8,25.1,19.3,21.8,10.9,7.7,69,55,47,30.54,30.35,12,2,12,0.00
2013-12-26,35.8,33.1,30.1,27.3,24.5,20.8,76,70,57,30.44,30.17,12,2,12,0.00
2013-12-27,40.2,35.7,31.2,26.4,23.1,19.3,72,60,46,30.37,30.27,12,2,12,0.00
2013-12-28,55.1,46.9,35.5,31.9,29.0,25.5,69,51,39,30.29,30.07,15,4,15,0.00
2013-12-29,48.9,43.9,40.5,41.8,35.6,29.4,95,74,47,30.07,29.40,10,2,10,1.19
2013-12-30,44.5,36.2,23.3,38.3,26.7,10.4,85,69,53,30.21,29.69,12,3,12,0.00
2013-12-31,32.7,27.1,22.0,23.6,14.8,9.8,72,60,50,30.29,30.07,16,3,16,0.00
2014-1-1,33.4,29.4,24.5,22.9,16.9,9.5,68,59,50,30.42,30.26,9,2,9,0.00
2014-1-2,32.4,26.4,17.9,25.2,22.2,15.7,91,84,67,30.26,29.69,18,6,18,0.00